| time (UTC) | temp F | wind direction | speed MPH | gust MPH | rain 1hr in | rain 24hr in | rain mn in | humidity % | barometer mb |
| 20260906111733 | 71 | 101 | 0.0 | 0.0 | 0.00 | 0.05 | 0.05 | 99 | 1015.0 |
| 20260906111233 | 71 | 90 | 0.0 | 0.0 | 0.00 | 0.05 | 0.05 | 99 | 1014.9 |
| 20260906110728 | 71 | 89 | 0.0 | 0.0 | 0.00 | 0.05 | 0.05 | 99 | 1015.1 |
| 20260906110224 | 71 | 119 | 0.0 | 0.0 | 0.00 | 0.05 | 0.05 | 99 | 1015.3 |
| 20260906105722 | 72 | 92 | 0.0 | 0.0 | 0.00 | 0.05 | 0.05 | 99 | 1015.0 |
| 20260906105219 | 72 | 91 | 0.0 | 0.0 | 0.00 | 0.05 | 0.05 | 99 | 1015.2 |
| 20260906104719 | 72 | 92 | 0.0 | 0.0 | 0.00 | 0.05 | 0.05 | 99 | 1015.3 |
| 20260906104218 | 72 | 90 | 0.0 | 0.0 | 0.00 | 0.05 | 0.05 | 99 | 1015.1 |
| 20260906103715 | 72 | 74 | 0.0 | 2.0 | 0.00 | 0.05 | 0.05 | 99 | 1015.1 |
| 20260906103210 | 72 | 19 | 2.0 | 2.0 | 0.00 | 0.05 | 0.05 | 99 | 1015.2 |
| 20260906102706 | 72 | 55 | 1.0 | 1.0 | 0.00 | 0.05 | 0.05 | 99 | 1015.4 |
| 20260906102206 | 72 | 76 | 0.0 | 1.0 | 0.00 | 0.05 | 0.05 | 99 | 1015.1 |
| 20260906101706 | 72 | 79 | 1.0 | 1.0 | 0.00 | 0.05 | 0.05 | 99 | 1015.3 |
| 20260906101201 | 72 | 70 | 0.0 | 1.0 | 0.00 | 0.05 | 0.05 | 99 | 1015.5 |
| 20260906100656 | 72 | 89 | 0.0 | 1.0 | 0.00 | 0.05 | 0.05 | 99 | 1015.4 |
| 20260906100156 | 73 | 108 | 0.0 | 1.0 | 0.00 | 0.05 | 0.05 | 99 | 1015.3 |
| 20260906095651 | 73 | 63 | 1.0 | 2.0 | 0.07 | 0.05 | 0.05 | 99 | 1015.3 |
| 20260906095146 | 73 | 118 | 1.0 | 2.0 | 0.07 | 0.05 | 0.05 | 99 | 1015.9 |
| 20260906094645 | 73 | 122 | 1.0 | 1.0 | 0.00 | 0.04 | 0.04 | 99 | 1015.7 |
| 20260906094141 | 73 | 106 | 1.0 | 1.0 | 0.00 | 0.04 | 0.04 | 99 | 1015.5 |
| 20260906093638 | 73 | 86 | 0.0 | 2.0 | 0.00 | 0.04 | 0.04 | 99 | 1015.5 |
| 20260906093137 | 73 | 94 | 0.0 | 0.0 | 0.00 | 0.04 | 0.04 | 99 | 1015.2 |
| 20260906092632 | 73 | 83 | 0.0 | 0.0 | 0.00 | 0.04 | 0.04 | 99 | 1015.5 |
| 20260906092133 | 73 | 58 | 1.0 | 1.0 | 0.00 | 0.04 | 0.04 | 99 | 1015.3 |
| 20260906091629 | 73 | 98 | 0.0 | 1.0 | 0.00 | 0.04 | 0.04 | 99 | 1015.4 |
| 20260906091125 | 73 | 59 | 1.0 | 2.0 | 0.00 | 0.04 | 0.04 | 99 | 1015.6 |
| 20260906090621 | 73 | 97 | 0.0 | 0.0 | 0.00 | 0.04 | 0.04 | 99 | 1015.6 |
| 20260906090120 | 73 | 92 | 0.0 | 0.0 | 0.00 | 0.04 | 0.04 | 99 | 1016.2 |
| 20260906085620 | 73 | 83 | 0.0 | 1.0 | 0.05 | 0.04 | 0.04 | 99 | 1015.8 |
| 20260906085114 | 74 | 109 | 0.0 | 1.0 | 0.00 | 0.03 | 0.03 | 99 | 1015.5 |
| 20260906084609 | 74 | 106 | 1.0 | 1.0 | 0.00 | 0.03 | 0.03 | 99 | 1016.2 |
| 20260906084107 | 74 | 96 | 0.0 | 0.0 | 0.12 | 0.03 | 0.03 | 98 | 1016.4 |
| 20260906083603 | 74 | 126 | 2.0 | 2.0 | 0.19 | 0.03 | 0.03 | 98 | 1015.9 |
| 20260906083103 | 74 | 95 | 0.0 | 0.0 | 0.07 | 0.01 | 0.01 | 97 | 1015.7 |
| 20260906082558 | 74 | 104 | 0.0 | 1.0 | 0.00 | 0.00 | 0.00 | 96 | 1015.3 |
| 20260906082054 | 75 | 94 | 0.0 | 0.0 | 0.00 | 0.00 | 0.00 | 95 | 1015.5 |
| 20260906081550 | 75 | 103 | 1.0 | 1.0 | 0.00 | 0.00 | 0.00 | 94 | 1015.4 |
| 20260906081045 | 75 | 94 | 0.0 | 0.0 | 0.00 | 0.00 | 0.00 | 95 | 1015.5 |
| 20260906080542 | 75 | 49 | 1.0 | 2.0 | 0.00 | 0.00 | 0.00 | 96 | 1015.5 |
| 20260906080038 | 74 | 94 | 2.0 | 2.0 | 0.00 | 0.00 | 0.00 | 95 | 1015.0 |
| 20260906075537 | 74 | 91 | 0.0 | 1.0 | 0.00 | 0.00 | 0.00 | 96 | 1015.3 |
| 20260906075032 | 75 | 47 | 1.0 | 2.0 | 0.00 | 0.00 | 0.00 | 97 | 1015.5 |
| 20260906074527 | 74 | 113 | 2.0 | 2.0 | 0.00 | 0.00 | 0.00 | 97 | 1015.3 |
| 20260906074025 | 74 | 75 | 0.0 | 2.0 | 0.00 | 0.00 | 0.00 | 98 | 1015.3 |
| 20260906073520 | 73 | 129 | 1.0 | 2.0 | 0.00 | 0.00 | 0.00 | 99 | 1015.3 |
| 20260906073016 | 73 | 65 | 0.0 | 2.0 | 0.00 | 0.00 | 0.00 | 99 | 1015.3 |
| 20260906072511 | 73 | 8 | 2.0 | 2.0 | 0.00 | 0.00 | 0.00 | 99 | 1015.0 |
| 20260906072008 | 73 | 40 | 0.0 | 2.0 | 0.00 | 0.00 | 0.00 | 99 | 1014.5 |
| 20260906071503 | 73 | 88 | 0.0 | 0.0 | 0.00 | 0.00 | 0.00 | 99 | 1014.6 |
| 20260906070958 | 73 | 84 | 0.0 | 0.0 | 0.00 | 0.00 | 0.00 | 99 | 1014.8 |
| 20260906070454 | 73 | 75 | 0.0 | 1.0 | 0.00 | 0.00 | 0.00 | 99 | 1014.9 |
| 20260906065950 | 73 | 83 | 0.0 | 0.0 | 0.00 | 0.00 | 0.00 | 99 | 1014.8 |
| 20260906065449 | 73 | 85 | 0.0 | 0.0 | 0.00 | 0.00 | 0.00 | 99 | 1014.9 |
| 20260906064945 | 73 | 82 | 0.0 | 0.0 | 0.00 | 0.00 | 0.00 | 99 | 1014.7 |
| 20260906064441 | 73 | 73 | 1.0 | 1.0 | 0.00 | 0.00 | 0.00 | 99 | 1014.6 |
| 20260906063935 | 73 | 75 | 0.0 | 1.0 | 0.00 | 0.00 | 0.00 | 99 | 1014.7 |
| 20260906063431 | 73 | 83 | 0.0 | 0.0 | 0.00 | 0.00 | 0.00 | 99 | 1014.1 |
| 20260906062926 | 73 | 90 | 0.0 | 0.0 | 0.00 | 0.00 | 0.00 | 99 | 1014.2 |
| 20260906062426 | 73 | 90 | 0.0 | 0.0 | 0.00 | 0.00 | 0.00 | 99 | 1014.1 |
| 20260906061921 | 73 | 91 | 0.0 | 0.0 | 0.00 | 0.00 | 0.00 | 99 | 1014.5 |
| 20260906061418 | 73 | 89 | 0.0 | 0.0 | 0.00 | 0.00 | 0.00 | 99 | 1014.2 |
| 20260906060911 | 73 | 91 | 0.0 | 0.0 | 0.00 | 0.00 | 0.00 | 99 | 1014.1 |
| 20260906060409 | 73 | 91 | 0.0 | 0.0 | 0.00 | 0.00 | 0.00 | 99 | 1014.2 |
| 20260906055905 | 73 | 91 | 0.0 | 0.0 | 0.00 | 0.00 | 0.00 | 99 | 1014.2 |
| 20260906055401 | 73 | 91 | 0.0 | 0.0 | 0.00 | 0.00 | 0.00 | 99 | 1014.3 |
| 20260906054855 | 73 | 89 | 0.0 | 0.0 | 0.00 | 0.00 | 0.00 | 99 | 1014.3 |
| 20260906054350 | 74 | 88 | 0.0 | 0.0 | 0.00 | 0.00 | 0.00 | 99 | 1014.1 |
| 20260906053847 | 74 | 83 | 0.0 | 0.0 | 0.00 | 0.00 | 0.00 | 99 | 1014.3 |
| 20260906053342 | 73 | 90 | 0.0 | 0.0 | 0.00 | 0.00 | 0.00 | 99 | 1014.2 |
| 20260906052838 | 73 | 90 | 0.0 | 0.0 | 0.00 | 0.00 | 0.00 | 99 | 1014.3 |
| 20260906052334 | 74 | 89 | 0.0 | 0.0 | 0.00 | 0.00 | 0.00 | 99 | 1014.4 |
| 20260906051831 | 74 | 92 | 0.0 | 0.0 | 0.00 | 0.00 | 0.00 | 99 | 1014.5 |
| 20260906051330 | 74 | 89 | 0.0 | 0.0 | 0.00 | 0.00 | 0.00 | 99 | 1014.7 |
| 20260906050826 | 74 | 75 | 0.0 | 0.0 | 0.00 | 0.00 | 0.00 | 99 | 1014.5 |
| 20260906050321 | 74 | 79 | 0.0 | 0.0 | 0.00 | 0.00 | 0.00 | 99 | 1014.8 |
| 20260906045819 | 74 | 89 | 0.0 | 0.0 | 0.00 | 0.00 | 0.00 | 99 | 1014.5 |
| 20260906045314 | 74 | 88 | 0.0 | 0.0 | 0.00 | 0.00 | 0.00 | 99 | 1014.8 |
| 20260906044811 | 74 | 90 | 0.0 | 0.0 | 0.00 | 0.00 | 0.00 | 99 | 1014.7 |
| 20260906044305 | 74 | 91 | 0.0 | 0.0 | 0.00 | 0.00 | 0.00 | 99 | 1014.6 |
| 20260906043801 | 74 | 90 | 0.0 | 0.0 | 0.00 | 0.00 | 0.00 | 99 | 1014.6 |
| 20260906043257 | 74 | 90 | 0.0 | 0.0 | 0.00 | 0.00 | 0.00 | 99 | 1014.7 |
| 20260906042756 | 74 | 94 | 0.0 | 0.0 | 0.00 | 0.00 | 0.00 | 99 | 1014.8 |
| 20260906042256 | 74 | 92 | 0.0 | 0.0 | 0.00 | 0.00 | 0.00 | 99 | 1014.8 |
| 20260906041751 | 74 | 87 | 0.0 | 0.0 | 0.00 | 0.00 | 0.00 | 99 | 1014.6 |
| 20260906041246 | 74 | 90 | 0.0 | 0.0 | 0.00 | 0.00 | 0.00 | 99 | 1014.6 |
| 20260906040741 | 75 | 90 | 0.0 | 0.0 | 0.00 | 0.00 | 0.00 | 99 | 1014.5 |
| 20260906040237 | 75 | 89 | 0.0 | 0.0 | 0.00 | 0.00 | 0.00 | 99 | 1014.9 |
| 20260906035732 | 75 | 88 | 0.0 | 0.0 | 0.00 | 0.00 | 0.00 | 99 | 1014.8 |
| 20260906035228 | 75 | 90 | 0.0 | 0.0 | 0.00 | 0.00 | 0.00 | 99 | 1014.9 |
| 20260906034727 | 75 | 91 | 0.0 | 0.0 | 0.00 | 0.00 | 0.00 | 99 | 1014.8 |
| 20260906034223 | 75 | 90 | 0.0 | 0.0 | 0.00 | 0.00 | 0.00 | 99 | 1014.5 |
| 20260906033718 | 75 | 93 | 0.0 | 0.0 | 0.00 | 0.00 | 0.00 | 99 | 1014.5 |
| 20260906033212 | 75 | 94 | 0.0 | 0.0 | 0.00 | 0.00 | 0.00 | 98 | 1014.5 |
| 20260906032709 | 75 | 87 | 0.0 | 0.0 | 0.00 | 0.00 | 0.00 | 98 | 1014.5 |
| 20260906032209 | 75 | 87 | 0.0 | 0.0 | 0.00 | 0.00 | 0.00 | 98 | 1014.4 |
| 20260906031704 | 75 | 84 | 0.0 | 0.0 | 0.00 | 0.00 | 0.00 | 98 | 1014.6 |
| 20260906031159 | 75 | 90 | 0.0 | 0.0 | 0.00 | 0.00 | 0.00 | 98 | 1014.6 |
| 20260906030700 | 75 | 90 | 0.0 | 0.0 | 0.00 | 0.00 | 0.00 | 98 | 1014.4 |
| 20260906030155 | 75 | 90 | 0.0 | 0.0 | 0.00 | 0.00 | 0.00 | 98 | 1014.5 |
| 20260906025654 | 75 | 90 | 0.0 | 0.0 | 0.00 | 0.00 | 0.00 | 98 | 1014.4 |
| 20260906025153 | 75 | 90 | 0.0 | 0.0 | 0.00 | 0.00 | 0.00 | 98 | 1014.2 |
| 20260906024648 | 75 | 90 | 0.0 | 0.0 | 0.00 | 0.00 | 0.00 | 97 | 1014.4 |
| 20260906024147 | 76 | 90 | 0.0 | 0.0 | 0.00 | 0.00 | 0.00 | 97 | 1014.0 |
| 20260906023643 | 76 | 88 | 0.0 | 0.0 | 0.00 | 0.00 | 0.00 | 97 | 1014.1 |
| 20260906023143 | 76 | 87 | 0.0 | 0.0 | 0.00 | 0.00 | 0.00 | 97 | 1014.0 |
| 20260906022638 | 76 | 88 | 0.0 | 0.0 | 0.00 | 0.00 | 0.00 | 97 | 1014.1 |
| 20260906022135 | 76 | 88 | 0.0 | 0.0 | 0.00 | 0.00 | 0.00 | 97 | 1014.1 |
| 20260906021630 | 76 | 87 | 0.0 | 0.0 | 0.00 | 0.00 | 0.00 | 96 | 1014.0 |
| 20260906021128 | 76 | 87 | 0.0 | 0.0 | 0.00 | 0.00 | 0.00 | 96 | 1013.8 |
| 20260906020628 | 76 | 86 | 0.0 | 0.0 | 0.00 | 0.00 | 0.00 | 96 | 1013.8 |
| 20260906020123 | 76 | 93 | 0.0 | 0.0 | 0.00 | 0.00 | 0.00 | 96 | 1013.7 |
| 20260906015619 | 77 | 86 | 0.0 | 0.0 | 0.00 | 0.00 | 0.00 | 96 | 1013.9 |
| 20260906015117 | 77 | 63 | 0.0 | 0.0 | 0.00 | 0.00 | 0.00 | 96 | 1013.7 |
| 20260906014612 | 77 | 61 | 0.0 | 0.0 | 0.00 | 0.00 | 0.00 | 95 | 1013.9 |
| 20260906014109 | 77 | 60 | 0.0 | 0.0 | 0.00 | 0.00 | 0.00 | 95 | 1013.6 |
| 20260906013603 | 77 | 60 | 0.0 | 0.0 | 0.00 | 0.00 | 0.00 | 95 | 1013.7 |
| 20260906013058 | 78 | 60 | 0.0 | 0.0 | 0.00 | 0.00 | 0.00 | 95 | 1013.7 |
| 20260906012553 | 78 | 60 | 0.0 | 0.0 | 0.00 | 0.00 | 0.00 | 95 | 1013.6 |
| 20260906012053 | 78 | 59 | 0.0 | 0.0 | 0.00 | 0.00 | 0.00 | 94 | 1013.7 |
| 20260906011549 | 78 | 59 | 0.0 | 0.0 | 0.00 | 0.00 | 0.00 | 94 | 1013.6 |
| 20260906011048 | 78 | 59 | 0.0 | 0.0 | 0.00 | 0.00 | 0.00 | 94 | 1013.5 |
| 20260906010544 | 78 | 59 | 0.0 | 0.0 | 0.00 | 0.00 | 0.00 | 94 | 1013.6 |
| 20260906010040 | 79 | 59 | 0.0 | 0.0 | 0.00 | 0.00 | 0.00 | 93 | 1013.4 |
| 20260906005539 | 79 | 59 | 0.0 | 0.0 | 0.00 | 0.00 | 0.00 | 93 | 1013.5 |
| 20260906005039 | 79 | 59 | 0.0 | 0.0 | 0.00 | 0.00 | 0.00 | 93 | 1013.3 |
| 20260906004538 | 79 | 59 | 0.0 | 0.0 | 0.00 | 0.00 | 0.00 | 92 | 1013.4 |
| 20260906004033 | 79 | 59 | 0.0 | 0.0 | 0.00 | 0.00 | 0.00 | 92 | 1013.3 |
| 20260906003529 | 80 | 59 | 0.0 | 0.0 | 0.00 | 0.00 | 0.00 | 92 | 1013.2 |
| 20260906003025 | 80 | 59 | 0.0 | 0.0 | 0.00 | 0.00 | 0.00 | 91 | 1013.3 |
| 20260906002525 | 80 | 59 | 0.0 | 0.0 | 0.00 | 0.00 | 0.00 | 91 | 1013.3 |
| 20260906002019 | 81 | 59 | 0.0 | 0.0 | 0.00 | 0.00 | 0.00 | 91 | 1013.3 |
| 20260906001515 | 81 | 59 | 0.0 | 0.0 | 0.00 | 0.00 | 0.00 | 90 | 1013.2 |
| 20260906001009 | 81 | 59 | 0.0 | 0.0 | 0.00 | 0.00 | 0.00 | 89 | 1013.3 |
| 20260906000506 | 82 | 59 | 0.0 | 0.0 | 0.00 | 0.00 | 0.00 | 89 | 1013.3 |
| 20260906000000 | 82 | 59 | 0.0 | 0.0 | 0.00 | 0.00 | 0.00 | 88 | 1013.5 |
| 20260905235459 | 83 | 59 | 0.0 | 0.0 | 0.00 | 0.00 | 0.00 | 87 | 1013.5 |
| 20260905234955 | 83 | 59 | 0.0 | 0.0 | 0.00 | 0.00 | 0.00 | 87 | 1013.5 |
| 20260905234451 | 84 | 59 | 0.0 | 0.0 | 0.00 | 0.00 | 0.00 | 86 | 1013.5 |
| 20260905233950 | 84 | 59 | 0.0 | 0.0 | 0.00 | 0.00 | 0.00 | 85 | 1013.3 |
| 20260905233446 | 84 | 59 | 0.0 | 0.0 | 0.00 | 0.00 | 0.00 | 84 | 1013.5 |
| 20260905232944 | 84 | 59 | 0.0 | 0.0 | 0.00 | 0.00 | 0.00 | 83 | 1013.4 |
| 20260905232441 | 85 | 59 | 0.0 | 0.0 | 0.00 | 0.00 | 0.00 | 82 | 1013.3 |
| 20260905231936 | 86 | 59 | 0.0 | 0.0 | 0.00 | 0.00 | 0.00 | 79 | 1013.3 |
| 20260905231432 | 87 | 59 | 0.0 | 0.0 | 0.00 | 0.00 | 0.00 | 79 | 1013.5 |
| 20260905230928 | 87 | 59 | 0.0 | 0.0 | 0.00 | 0.00 | 0.00 | 77 | 1013.2 |
| 20260905230426 | 87 | 59 | 0.0 | 0.0 | 0.00 | 0.00 | 0.00 | 76 | 1013.5 |
| 20260905225925 | 87 | 59 | 0.0 | 0.0 | 0.00 | 0.00 | 0.00 | 76 | 1013.1 |
| 20260905225420 | 88 | 59 | 0.0 | 0.0 | 0.00 | 0.00 | 0.00 | 74 | 1013.3 |
| 20260905224915 | 88 | 59 | 0.0 | 0.0 | 0.00 | 0.00 | 0.00 | 72 | 1013.3 |
| 20260905224411 | 89 | 59 | 0.0 | 0.0 | 0.00 | 0.00 | 0.00 | 72 | 1013.1 |
| 20260905223905 | 90 | 59 | 0.0 | 0.0 | 0.00 | 0.00 | 0.00 | 69 | 1013.2 |
| 20260905223403 | 91 | 59 | 0.0 | 0.0 | 0.00 | 0.00 | 0.00 | 68 | 1013.2 |
| 20260905222903 | 92 | 59 | 0.0 | 0.0 | 0.00 | 0.00 | 0.00 | 67 | 1013.3 |
| 20260905222402 | 92 | 60 | 0.0 | 1.0 | 0.00 | 0.00 | 0.00 | 65 | 1013.3 |
| 20260905221858 | 92 | 60 | 0.0 | 2.0 | 0.00 | 0.00 | 0.00 | 65 | 1013.1 |
| 20260905221355 | 92 | 60 | 0.0 | 1.0 | 0.00 | 0.00 | 0.00 | 69 | 1013.3 |
| 20260905220850 | 92 | 59 | 0.0 | 1.0 | 0.00 | 0.00 | 0.00 | 64 | 1013.3 |
| 20260905220346 | 93 | 62 | 0.0 | 1.0 | 0.00 | 0.00 | 0.00 | 65 | 1013.3 |
| 20260905215845 | 93 | 63 | 1.0 | 1.0 | 0.00 | 0.00 | 0.00 | 63 | 1013.3 |
| 20260905215342 | 94 | 62 | 0.0 | 0.0 | 0.00 | 0.00 | 0.00 | 62 | 1013.3 |
| 20260905214838 | 95 | 62 | 0.0 | 0.0 | 0.00 | 0.00 | 0.00 | 64 | 1013.3 |
| 20260905214332 | 93 | 61 | 0.0 | 1.0 | 0.00 | 0.00 | 0.00 | 62 | 1013.3 |
| 20260905213827 | 92 | 61 | 0.0 | 1.0 | 0.00 | 0.00 | 0.00 | 63 | 1013.5 |
| 20260905213323 | 92 | 60 | 1.0 | 1.0 | 0.00 | 0.00 | 0.00 | 63 | 1013.4 |
| 20260905212818 | 93 | 60 | 0.0 | 1.0 | 0.00 | 0.00 | 0.00 | 63 | 1013.5 |
| 20260905212318 | 95 | 60 | 0.0 | 0.0 | 0.00 | 0.00 | 0.00 | 56 | 1013.5 |
| 20260905211818 | 94 | 59 | 0.0 | 0.0 | 0.00 | 0.00 | 0.00 | 60 | 1013.6 |
| 20260905211313 | 95 | 58 | 0.0 | 1.0 | 0.00 | 0.00 | 0.00 | 60 | 1013.5 |
| 20260905210810 | 96 | 95 | 0.0 | 0.0 | 0.00 | 0.00 | 0.00 | 48 | 1013.5 |
| 20260905210309 | 97 | 72 | 0.0 | 2.0 | 0.00 | 0.00 | 0.00 | 50 | 1013.6 |
| 20260905205808 | 98 | 87 | 0.0 | 1.0 | 0.00 | 0.00 | 0.00 | 47 | 1013.6 |
| 20260905205306 | 99 | 69 | 1.0 | 1.0 | 0.00 | 0.00 | 0.00 | 46 | 1013.5 |
| 20260905204802 | 98 | 82 | 0.0 | 1.0 | 0.00 | 0.00 | 0.00 | 47 | 1013.7 |
| 20260905204259 | 98 | 93 | 0.0 | 1.0 | 0.00 | 0.00 | 0.00 | 46 | 1013.7 |
| 20260905203757 | 97 | 354 | 2.0 | 2.0 | 0.00 | 0.00 | 0.00 | 53 | 1013.7 |
| 20260905203253 | 98 | 67 | 1.0 | 2.0 | 0.00 | 0.00 | 0.00 | 49 | 1013.9 |
| 20260905202749 | 97 | 45 | 1.0 | 2.0 | 0.00 | 0.00 | 0.00 | 50 | 1014.0 |
| 20260905202244 | 96 | 72 | 0.0 | 3.0 | 0.00 | 0.00 | 0.00 | 50 | 1013.9 |
| 20260905201739 | 97 | 80 | 0.0 | 2.0 | 0.00 | 0.00 | 0.00 | 50 | 1014.0 |
| 20260905201234 | 98 | 64 | 0.0 | 1.0 | 0.00 | 0.00 | 0.00 | 51 | 1013.9 |
| 20260905200729 | 98 | 64 | 1.0 | 1.0 | 0.00 | 0.00 | 0.00 | 51 | 1014.1 |
| 20260905200225 | 98 | 123 | 1.0 | 2.0 | 0.00 | 0.00 | 0.00 | 51 | 1014.1 |
| 20260905195724 | 98 | 5 | 2.0 | 2.0 | 0.00 | 0.00 | 0.00 | 52 | 1014.4 |
| 20260905195224 | 98 | 95 | 1.0 | 1.0 | 0.00 | 0.00 | 0.00 | 51 | 1014.4 |
| 20260905194720 | 97 | 100 | 0.0 | 2.0 | 0.00 | 0.00 | 0.00 | 53 | 1014.5 |
| 20260905194220 | 98 | 55 | 1.0 | 2.0 | 0.00 | 0.00 | 0.00 | 49 | 1014.3 |
| 20260905193719 | 98 | 138 | 2.0 | 2.0 | 0.00 | 0.00 | 0.00 | 49 | 1014.4 |
| 20260905193214 | 97 | 50 | 1.0 | 2.0 | 0.00 | 0.00 | 0.00 | 53 | 1014.7 |
| 20260905192710 | 98 | 81 | 0.0 | 1.0 | 0.00 | 0.00 | 0.00 | 51 | 1014.7 |
| 20260905192206 | 98 | 49 | 0.0 | 2.0 | 0.00 | 0.00 | 0.00 | 50 | 1014.8 |
| 20260905191705 | 98 | 11 | 2.0 | 2.0 | 0.00 | 0.00 | 0.00 | 53 | 1014.8 |
| 20260905191203 | 97 | 57 | 3.0 | 3.0 | 0.00 | 0.00 | 0.00 | 51 | 1015.3 |
| 20260905190702 | 98 | 70 | 0.0 | 1.0 | 0.00 | 0.00 | 0.00 | 51 | 1015.2 |
| 20260905190201 | 97 | 62 | 0.0 | 2.0 | 0.00 | 0.00 | 0.00 | 51 | 1015.4 |
| 20260905185700 | 97 | 323 | 3.0 | 3.0 | 0.00 | 0.00 | 0.00 | 52 | 1015.3 |
| 20260905185156 | 97 | 42 | 1.0 | 2.0 | 0.00 | 0.00 | 0.00 | 53 | 1015.4 |
| 20260905184655 | 96 | 73 | 0.0 | 2.0 | 0.00 | 0.00 | 0.00 | 55 | 1015.5 |
| 20260905184154 | 96 | 73 | 0.0 | 1.0 | 0.00 | 0.00 | 0.00 | 54 | 1015.3 |
| 20260905183654 | 96 | 60 | 1.0 | 2.0 | 0.00 | 0.00 | 0.00 | 55 | 1015.5 |
| 20260905183148 | 97 | 344 | 2.0 | 5.0 | 0.00 | 0.00 | 0.00 | 53 | 1015.8 |
| 20260905182648 | 97 | 358 | 2.0 | 3.0 | 0.00 | 0.00 | 0.00 | 54 | 1015.6 |
| 20260905182148 | 97 | 18 | 1.0 | 2.0 | 0.00 | 0.00 | 0.00 | 52 | 1015.7 |
| 20260905181643 | 96 | 66 | 1.0 | 1.0 | 0.00 | 0.00 | 0.00 | 54 | 1016.1 |
| 20260905181142 | 96 | 63 | 0.0 | 2.0 | 0.00 | 0.00 | 0.00 | 56 | 1015.8 |
| 20260905180637 | 96 | 53 | 1.0 | 2.0 | 0.00 | 0.00 | 0.00 | 56 | 1016.1 |
| 20260905180132 | 97 | 9 | 3.0 | 5.0 | 0.00 | 0.00 | 0.00 | 54 | 1016.1 |
| 20260905175632 | 97 | 77 | 2.0 | 3.0 | 0.00 | 0.00 | 0.00 | 53 | 1016.2 |
| 20260905175127 | 96 | 20 | 1.0 | 1.0 | 0.00 | 0.00 | 0.00 | 56 | 1015.9 |
| 20260905174623 | 95 | 64 | 0.0 | 2.0 | 0.00 | 0.00 | 0.00 | 56 | 1016.1 |
| 20260905174118 | 96 | 61 | 1.0 | 1.0 | 0.00 | 0.00 | 0.00 | 56 | 1016.3 |
| 20260905173614 | 96 | 51 | 1.0 | 2.0 | 0.00 | 0.00 | 0.00 | 56 | 1015.7 |
| 20260905173109 | 96 | 60 | 0.0 | 2.0 | 0.00 | 0.00 | 0.00 | 56 | 1015.9 |
| 20260905172608 | 95 | 71 | 0.0 | 0.0 | 0.00 | 0.00 | 0.00 | 57 | 1015.9 |
| 20260905172103 | 93 | 67 | 2.0 | 2.0 | 0.00 | 0.00 | 0.00 | 60 | 1016.2 |
| 20260905171600 | 94 | 53 | 0.0 | 2.0 | 0.00 | 0.00 | 0.00 | 59 | 1016.3 |
| 20260905171056 | 95 | 64 | 1.0 | 1.0 | 0.00 | 0.00 | 0.00 | 59 | 1016.4 |
| 20260905170552 | 95 | 64 | 1.0 | 1.0 | 0.00 | 0.00 | 0.00 | 60 | 1016.5 |
| 20260905170047 | 93 | 57 | 1.0 | 2.0 | 0.00 | 0.00 | 0.00 | 62 | 1016.6 |
| 20260905165542 | 93 | 63 | 1.0 | 2.0 | 0.00 | 0.00 | 0.00 | 59 | 1016.5 |
| 20260905165037 | 93 | 51 | 1.0 | 2.0 | 0.00 | 0.00 | 0.00 | 63 | 1016.5 |
| 20260905164537 | 93 | 62 | 1.0 | 2.0 | 0.00 | 0.00 | 0.00 | 61 | 1016.7 |
| 20260905164032 | 93 | 47 | 1.0 | 1.0 | 0.00 | 0.00 | 0.00 | 64 | 1016.8 |
| 20260905163528 | 93 | 63 | 2.0 | 2.0 | 0.00 | 0.00 | 0.00 | 61 | 1016.9 |
| 20260905163024 | 93 | 60 | 1.0 | 2.0 | 0.00 | 0.00 | 0.00 | 63 | 1016.8 |
| 20260905162520 | 92 | 60 | 0.0 | 1.0 | 0.00 | 0.00 | 0.00 | 64 | 1016.8 |
| 20260905162014 | 91 | 50 | 1.0 | 2.0 | 0.00 | 0.00 | 0.00 | 70 | 1017.0 |
| 20260905161514 | 91 | 54 | 1.0 | 1.0 | 0.00 | 0.00 | 0.00 | 66 | 1016.8 |
| 20260905161012 | 93 | 51 | 1.0 | 2.0 | 0.00 | 0.00 | 0.00 | 67 | 1017.2 |
| 20260905160506 | 94 | 62 | 0.0 | 1.0 | 0.00 | 0.00 | 0.00 | 66 | 1017.0 |
| 20260905160006 | 93 | 62 | 1.0 | 1.0 | 0.00 | 0.00 | 0.00 | 64 | 1017.1 |
| 20260905155505 | 91 | 61 | 1.0 | 2.0 | 0.00 | 0.00 | 0.00 | 65 | 1017.0 |
| 20260905155004 | 91 | 55 | 1.0 | 1.0 | 0.00 | 0.00 | 0.00 | 69 | 1017.0 |
| 20260905154459 | 92 | 56 | 1.0 | 1.0 | 0.00 | 0.00 | 0.00 | 66 | 1017.0 |
| 20260905153955 | 91 | 64 | 1.0 | 2.0 | 0.00 | 0.00 | 0.00 | 67 | 1017.1 |
| 20260905153451 | 90 | 72 | 0.0 | 1.0 | 0.00 | 0.00 | 0.00 | 74 | 1017.1 |
| 20260905152950 | 90 | 72 | 0.0 | 1.0 | 0.00 | 0.00 | 0.00 | 74 | 1017.1 |
| 20260905152450 | 90 | 74 | 0.0 | 1.0 | 0.00 | 0.00 | 0.00 | 76 | 1017.1 |
| 20260905151945 | 90 | 72 | 0.0 | 1.0 | 0.00 | 0.00 | 0.00 | 76 | 1017.0 |
| 20260905151441 | 89 | 85 | 0.0 | 0.0 | 0.00 | 0.00 | 0.00 | 79 | 1017.2 |
| 20260905150936 | 87 | 86 | 0.0 | 0.0 | 0.00 | 0.00 | 0.00 | 77 | 1017.2 |
| 20260905150436 | 88 | 80 | 0.0 | 0.0 | 0.00 | 0.00 | 0.00 | 81 | 1017.2 |
| 20260905145932 | 87 | 80 | 0.0 | 0.0 | 0.00 | 0.00 | 0.00 | 81 | 1017.1 |
| 20260905145427 | 88 | 77 | 0.0 | 0.0 | 0.00 | 0.00 | 0.00 | 79 | 1017.4 |
| 20260905144926 | 87 | 85 | 0.0 | 0.0 | 0.00 | 0.00 | 0.00 | 75 | 1017.2 |
| 20260905144422 | 86 | 83 | 0.0 | 0.0 | 0.00 | 0.00 | 0.00 | 77 | 1017.2 |
| 20260905143921 | 85 | 83 | 0.0 | 0.0 | 0.00 | 0.00 | 0.00 | 83 | 1017.1 |
| 20260905143415 | 85 | 81 | 0.0 | 0.0 | 0.00 | 0.00 | 0.00 | 82 | 1017.3 |
| 20260905142914 | 82 | 90 | 0.0 | 0.0 | 0.00 | 0.00 | 0.00 | 81 | 1017.4 |
| 20260905142413 | 82 | 85 | 0.0 | 0.0 | 0.00 | 0.00 | 0.00 | 89 | 1017.4 |
| 20260905141909 | 81 | 88 | 0.0 | 0.0 | 0.00 | 0.00 | 0.00 | 86 | 1017.2 |
| 20260905141404 | 80 | 96 | 0.0 | 0.0 | 0.00 | 0.00 | 0.00 | 89 | 1017.5 |
| 20260905140900 | 80 | 84 | 0.0 | 0.0 | 0.00 | 0.00 | 0.00 | 92 | 1017.3 |
| 20260905140355 | 79 | 86 | 0.0 | 0.0 | 0.00 | 0.00 | 0.00 | 93 | 1017.2 |
| 20260905135854 | 78 | 88 | 0.0 | 0.0 | 0.00 | 0.00 | 0.00 | 93 | 1017.5 |
| 20260905135350 | 77 | 83 | 0.0 | 0.0 | 0.00 | 0.00 | 0.00 | 95 | 1017.3 |
| 20260905134845 | 76 | 85 | 0.0 | 0.0 | 0.00 | 0.00 | 0.00 | 98 | 1017.7 |
| 20260905134343 | 76 | 85 | 0.0 | 0.0 | 0.00 | 0.00 | 0.00 | 99 | 1017.5 |
| 20260905133838 | 75 | 85 | 0.0 | 0.0 | 0.00 | 0.00 | 0.00 | 99 | 1017.5 |
| 20260905133334 | 75 | 85 | 0.0 | 0.0 | 0.00 | 0.00 | 0.00 | 99 | 1017.3 |
| 20260905132833 | 75 | 85 | 0.0 | 0.0 | 0.00 | 0.00 | 0.00 | 99 | 1017.6 |
| 20260905132329 | 74 | 85 | 0.0 | 0.0 | 0.00 | 0.00 | 0.00 | 99 | 1017.4 |
| 20260905131828 | 74 | 85 | 0.0 | 0.0 | 0.00 | 0.00 | 0.00 | 99 | 1017.7 |
| 20260905131324 | 74 | 83 | 0.0 | 0.0 | 0.00 | 0.00 | 0.00 | 99 | 1017.6 |
| 20260905130819 | 73 | 90 | 0.0 | 0.0 | 0.00 | 0.00 | 0.00 | 99 | 1017.6 |
| 20260905130318 | 73 | 90 | 0.0 | 0.0 | 0.00 | 0.00 | 0.00 | 99 | 1017.8 |
| 20260905125813 | 73 | 91 | 0.0 | 0.0 | 0.00 | 0.00 | 0.00 | 99 | 1017.5 |
| 20260905125308 | 73 | 91 | 0.0 | 0.0 | 0.00 | 0.00 | 0.00 | 99 | 1017.5 |
| 20260905124804 | 73 | 85 | 0.0 | 0.0 | 0.00 | 0.00 | 0.00 | 99 | 1017.7 |
| 20260905124300 | 73 | 85 | 0.0 | 0.0 | 0.00 | 0.00 | 0.00 | 99 | 1017.3 |
| 20260905123755 | 72 | 86 | 0.0 | 0.0 | 0.00 | 0.00 | 0.00 | 99 | 1017.4 |
| 20260905123252 | 72 | 85 | 0.0 | 0.0 | 0.00 | 0.00 | 0.00 | 99 | 1017.3 |
| 20260905122752 | 72 | 85 | 0.0 | 0.0 | 0.00 | 0.00 | 0.00 | 99 | 1017.5 |
| 20260905122251 | 72 | 92 | 0.0 | 0.0 | 0.00 | 0.00 | 0.00 | 99 | 1017.3 |
| 20260905121746 | 72 | 93 | 0.0 | 0.0 | 0.00 | 0.00 | 0.00 | 99 | 1017.1 |
| 20260905121243 | 72 | 94 | 0.0 | 0.0 | 0.00 | 0.00 | 0.00 | 99 | 1017.1 |
| 20260905120741 | 72 | 89 | 0.0 | 0.0 | 0.00 | 0.00 | 0.00 | 99 | 1017.4 |
| 20260905120236 | 72 | 89 | 0.0 | 0.0 | 0.00 | 0.00 | 0.00 | 99 | 1017.0 |
| 20260905115732 | 71 | 89 | 0.0 | 0.0 | 0.00 | 0.00 | 0.00 | 99 | 1016.9 |
| 20260905115231 | 71 | 94 | 0.0 | 0.0 | 0.00 | 0.00 | 0.00 | 99 | 1016.9 |
| 20260905114726 | 71 | 89 | 0.0 | 0.0 | 0.00 | 0.00 | 0.00 | 99 | 1016.9 |
| 20260905114224 | 71 | 91 | 0.0 | 0.0 | 0.00 | 0.00 | 0.00 | 99 | 1016.7 |
| 20260905113724 | 71 | 91 | 0.0 | 0.0 | 0.00 | 0.00 | 0.00 | 99 | 1016.8 |
| 20260905113220 | 71 | 91 | 0.0 | 0.0 | 0.00 | 0.00 | 0.00 | 99 | 1016.6 |
| 20260905112720 | 71 | 92 | 0.0 | 0.0 | 0.00 | 0.00 | 0.00 | 99 | 1016.7 |
| 20260905112215 | 71 | 87 | 0.0 | 0.0 | 0.00 | 0.00 | 0.00 | 99 | 1016.6 |